Time,TemperatureF,DewpointF,PressureIn,WindDirection,WindDirectionDegrees,WindSpeedMPH,WindSpeedGustMPH,Humidity,HourlyPrecipIn,Conditions,Clouds,dailyrainin,SoftwareType,DateUTC
2013-03-11 00:02:00,46.0,35.0,30.23,South,184,0.0,0.0,64,0.00,,,0.00,,2013-03-11 04:02:00,
2013-03-11 00:12:00,46.0,35.0,30.23,South,184,0.0,0.0,64,0.00,,,0.00,,2013-03-11 04:12:00,
2013-03-11 00:22:00,47.0,34.0,30.22,South,184,0.0,1.0,61,0.00,,,0.00,,2013-03-11 04:22:00,
2013-03-11 00:32:00,49.0,34.0,30.22,SSW,198,1.0,3.0,57,0.00,,,0.00,,2013-03-11 04:32:00,
2013-03-11 00:42:00,49.0,34.0,30.22,SSW,198,1.0,3.0,57,0.00,,,0.00,,2013-03-11 04:42:00,
2013-03-11 00:53:00,49.0,34.0,30.22,SSW,209,1.0,3.0,56,0.00,,,0.00,,2013-03-11 04:53:00,
2013-03-11 01:03:00,49.0,34.0,30.21,South,169,0.0,2.0,56,0.00,,,0.00,,2013-03-11 05:03:00,
2013-03-11 01:12:00,49.0,34.0,30.21,South,169,0.0,2.0,56,0.00,,,0.00,,2013-03-11 05:12:00,
2013-03-11 01:22:00,49.0,34.0,30.21,South,191,1.0,3.0,56,0.00,,,0.00,,2013-03-11 05:22:00,
2013-03-11 01:32:00,48.0,34.0,30.20,SW,217,1.0,3.0,57,0.00,,,0.00,,2013-03-11 05:32:00,
2013-03-11 01:43:00,48.0,34.0,30.20,SW,217,1.0,3.0,57,0.00,,,0.00,,2013-03-11 05:43:00,
2013-03-11 01:52:00,48.0,34.0,30.20,WSW,237,0.0,2.0,58,0.00,,,0.00,,2013-03-11 05:52:00,
2013-03-11 02:02:00,48.0,34.0,30.21,WSW,237,0.0,0.0,58,0.00,,,0.00,,2013-03-11 06:02:00,
2013-03-11 02:12:00,48.0,34.0,30.21,WSW,237,0.0,0.0,58,0.00,,,0.00,,2013-03-11 06:12:00,
2013-03-11 02:22:00,48.0,34.0,30.20,SSE,150,0.0,0.0,57,0.00,,,0.00,,2013-03-11 06:22:00,
2013-03-11 02:32:00,47.0,33.0,30.20,SE,126,0.0,0.0,59,0.00,,,0.00,,2013-03-11 06:32:00,
2013-03-11 02:42:00,47.0,33.0,30.20,SE,126,0.0,0.0,59,0.00,,,0.00,,2013-03-11 06:42:00,
2013-03-11 02:53:00,46.0,33.0,30.20,SE,126,0.0,0.0,61,0.00,,,0.00,,2013-03-11 06:53:00,
2013-03-11 03:03:00,47.0,33.0,30.19,SE,136,1.0,3.0,58,0.00,,,0.00,,2013-03-11 07:03:00,
2013-03-11 03:12:00,46.0,32.0,30.19,South,171,0.0,0.0,59,0.00,,,0.00,,2013-03-11 07:12:00,
2013-03-11 03:22:00,46.0,32.0,30.19,South,171,0.0,0.0,59,0.00,,,0.00,,2013-03-11 07:22:00,
2013-03-11 03:32:00,44.0,33.0,30.19,South,171,0.0,0.0,64,0.00,,,0.00,,2013-03-11 07:32:00,
2013-03-11 03:42:00,44.0,33.0,30.19,South,171,0.0,0.0,64,0.00,,,0.00,,2013-03-11 07:42:00,
2013-03-11 03:52:00,43.0,33.0,30.19,South,171,0.0,0.0,67,0.00,,,0.00,,2013-03-11 07:52:00,
2013-03-11 04:02:00,42.0,33.0,30.18,ESE,117,0.0,0.0,69,0.00,,,0.00,,2013-03-11 08:02:00,
2013-03-11 04:12:00,42.0,33.0,30.18,ESE,117,0.0,0.0,69,0.00,,,0.00,,2013-03-11 08:12:00,
2013-03-11 04:22:00,42.0,33.0,30.18,ESE,117,0.0,0.0,70,0.00,,,0.00,,2013-03-11 08:22:00,
2013-03-11 04:32:00,42.0,31.0,30.16,ESE,117,0.0,0.0,66,0.00,,,0.00,,2013-03-11 08:32:00,
2013-03-11 04:42:00,42.0,31.0,30.16,ESE,117,0.0,0.0,66,0.00,,,0.00,,2013-03-11 08:42:00,
2013-03-11 04:52:00,45.0,32.0,30.16,ESE,104,2.0,3.0,59,0.00,,,0.00,,2013-03-11 08:52:00,
2013-03-11 05:02:00,45.0,32.0,30.16,East,97,1.0,2.0,61,0.00,,,0.00,,2013-03-11 09:02:00,
2013-03-11 05:12:00,45.0,32.0,30.16,East,97,1.0,2.0,61,0.00,,,0.00,,2013-03-11 09:12:00,
2013-03-11 05:23:00,43.0,34.0,30.15,East,96,0.0,2.0,69,0.00,,,0.00,,2013-03-11 09:23:00,
2013-03-11 05:32:00,41.0,33.0,30.15,ESE,102,0.0,2.0,73,0.00,,,0.00,,2013-03-11 09:32:00,
2013-03-11 05:42:00,41.0,33.0,30.15,ESE,102,0.0,2.0,73,0.00,,,0.00,,2013-03-11 09:42:00,
2013-03-11 05:52:00,40.0,33.0,30.15,ESE,102,0.0,2.0,75,0.00,,,0.00,,2013-03-11 09:52:00,
2013-03-11 06:02:00,39.0,33.0,30.15,South,171,1.0,1.0,78,0.00,,,0.00,,2013-03-11 10:02:00,
2013-03-11 06:12:00,39.0,33.0,30.15,South,171,1.0,1.0,78,0.00,,,0.00,,2013-03-11 10:12:00,
2013-03-11 06:22:00,42.0,31.0,30.15,SE,143,2.0,4.0,66,0.00,,,0.00,,2013-03-11 10:22:00,
2013-03-11 06:32:00,44.0,31.0,30.14,SE,133,2.0,4.0,59,0.00,,,0.00,,2013-03-11 10:32:00,
2013-03-11 06:42:00,44.0,31.0,30.14,SE,133,2.0,4.0,59,0.00,,,0.00,,2013-03-11 10:42:00,
2013-03-11 06:52:00,45.0,31.0,30.15,SSE,161,1.0,4.0,57,0.00,,,0.00,,2013-03-11 10:52:00,
2013-03-11 07:02:00,45.0,30.0,30.15,SE,140,2.0,3.0,55,0.00,,,0.00,,2013-03-11 11:02:00,
2013-03-11 07:12:00,45.0,30.0,30.15,SE,140,2.0,3.0,55,0.00,,,0.00,,2013-03-11 11:12:00,
2013-03-11 07:22:00,45.0,28.0,30.15,SE,146,2.0,5.0,51,0.00,,,0.00,,2013-03-11 11:22:00,
2013-03-11 07:32:00,45.0,27.0,30.14,SSE,147,3.0,5.0,50,0.00,,,0.00,,2013-03-11 11:32:00,
2013-03-11 07:42:00,45.0,27.0,30.14,SSE,147,3.0,5.0,50,0.00,,,0.00,,2013-03-11 11:42:00,
2013-03-11 07:53:00,45.0,27.0,30.14,SSE,148,2.0,4.0,48,0.00,,,0.00,,2013-03-11 11:53:00,
2013-03-11 08:02:00,45.0,26.0,30.14,SSE,159,2.0,4.0,47,0.00,,,0.00,,2013-03-11 12:02:00,
2013-03-11 08:12:00,45.0,26.0,30.14,SSE,159,2.0,4.0,47,0.00,,,0.00,,2013-03-11 12:12:00,
2013-03-11 08:22:00,45.0,27.0,30.14,SE,135,2.0,6.0,49,0.00,,,0.00,,2013-03-11 12:22:00,
2013-03-11 08:32:00,44.0,26.0,30.14,SSE,161,1.0,3.0,49,0.00,,,0.00,,2013-03-11 12:32:00,
2013-03-11 08:43:00,44.0,26.0,30.14,SSE,161,1.0,3.0,49,0.00,,,0.00,,2013-03-11 12:43:00,
2013-03-11 08:53:00,44.0,26.0,30.14,South,170,1.0,3.0,49,0.00,,,0.00,,2013-03-11 12:53:00,
2013-03-11 09:02:00,44.0,27.0,30.15,SSW,203,0.0,3.0,51,0.00,,,0.00,,2013-03-11 13:02:00,
2013-03-11 09:12:00,44.0,27.0,30.15,SSW,203,0.0,3.0,51,0.00,,,0.00,,2013-03-11 13:12:00,
2013-03-11 09:22:00,44.0,27.0,30.16,SSE,161,3.0,5.0,50,0.00,,,0.00,,2013-03-11 13:22:00,
2013-03-11 09:32:00,45.0,26.0,30.16,SW,215,3.0,5.0,47,0.00,,,0.00,,2013-03-11 13:32:00,
2013-03-11 09:42:00,45.0,26.0,30.16,SW,215,3.0,5.0,47,0.00,,,0.00,,2013-03-11 13:42:00,
2013-03-11 09:53:00,46.0,26.0,30.16,SSW,205,2.0,5.0,45,0.00,,,0.00,,2013-03-11 13:53:00,
2013-03-11 10:02:00,47.0,24.0,30.16,South,191,4.0,6.0,40,0.00,,,0.00,,2013-03-11 14:02:00,
2013-03-11 10:12:00,47.0,24.0,30.16,South,191,4.0,6.0,40,0.00,,,0.00,,2013-03-11 14:12:00,
2013-03-11 10:22:00,47.0,26.0,30.16,SSE,168,2.0,5.0,44,0.00,,,0.00,,2013-03-11 14:22:00,
2013-03-11 10:33:00,47.0,27.0,30.14,South,171,2.0,4.0,46,0.00,,,0.00,,2013-03-11 14:33:00,
2013-03-11 10:42:00,47.0,27.0,30.14,South,171,2.0,4.0,46,0.00,,,0.00,,2013-03-11 14:42:00,
2013-03-11 10:53:00,48.0,29.0,30.15,SSW,207,3.0,6.0,48,0.00,,,0.00,,2013-03-11 14:53:00,
2013-03-11 11:02:00,49.0,32.0,30.15,SW,231,1.0,6.0,52,0.00,,,0.00,,2013-03-11 15:02:00,
2013-03-11 11:13:00,49.0,32.0,30.15,SW,231,1.0,6.0,52,0.00,,,0.00,,2013-03-11 15:13:00,
2013-03-11 11:22:00,49.0,33.0,30.14,SSW,213,3.0,5.0,54,0.00,,,0.00,,2013-03-11 15:22:00,
2013-03-11 11:32:00,50.0,34.0,30.14,SSW,209,4.0,7.0,55,0.00,,,0.00,,2013-03-11 15:32:00,
2013-03-11 11:42:00,50.0,34.0,30.14,SSW,209,4.0,7.0,55,0.00,,,0.00,,2013-03-11 15:42:00,
2013-03-11 11:53:00,50.0,36.0,30.14,SW,215,4.0,7.0,58,0.00,,,0.00,,2013-03-11 15:53:00,
2013-03-11 12:02:00,49.0,37.0,30.14,SSW,194,3.0,7.0,62,0.00,,,0.00,,2013-03-11 16:02:00,
2013-03-11 12:12:00,49.0,37.0,30.14,SSW,194,3.0,7.0,62,0.00,,,0.00,,2013-03-11 16:12:00,
2013-03-11 12:22:00,49.0,37.0,30.13,South,180,2.0,4.0,62,0.00,,,0.00,,2013-03-11 16:22:00,
2013-03-11 12:32:00,49.0,39.0,30.12,South,177,2.0,6.0,67,0.00,,,0.00,,2013-03-11 16:32:00,
2013-03-11 12:43:00,49.0,39.0,30.12,South,177,2.0,6.0,67,0.00,,,0.00,,2013-03-11 16:43:00,
2013-03-11 12:52:00,49.0,39.0,30.11,SSE,152,3.0,5.0,67,0.00,,,0.00,,2013-03-11 16:52:00,
2013-03-11 13:02:00,50.0,39.0,30.10,SE,142,5.0,7.0,67,0.00,,,0.00,,2013-03-11 17:02:00,
2013-03-11 13:15:00,50.0,39.0,30.10,SE,142,5.0,7.0,67,0.00,,,0.00,,2013-03-11 17:15:00,
2013-03-11 13:27:00,50.0,40.0,30.10,SSW,211,3.0,5.0,68,0.00,,,0.00,,2013-03-11 17:27:00,
2013-03-11 13:36:00,51.0,40.0,30.09,SSE,159,3.0,5.0,67,0.00,,,0.00,,2013-03-11 17:36:00,
2013-03-11 13:42:00,51.0,40.0,30.09,SSE,159,3.0,5.0,67,0.00,,,0.00,,2013-03-11 17:42:00,
2013-03-11 13:53:00,51.0,40.0,30.09,South,173,3.0,7.0,67,0.00,,,0.00,,2013-03-11 17:53:00,
2013-03-11 14:02:00,52.0,42.0,30.08,SE,136,5.0,6.0,69,0.00,,,0.00,,2013-03-11 18:02:00,
2013-03-11 14:12:00,52.0,42.0,30.08,SE,136,5.0,6.0,69,0.00,,,0.00,,2013-03-11 18:12:00,
2013-03-11 14:23:00,52.0,42.0,30.07,SSE,151,1.0,6.0,69,0.00,,,0.00,,2013-03-11 18:23:00,
2013-03-11 14:32:00,53.0,43.0,30.05,ESE,121,2.0,4.0,69,0.00,,,0.00,,2013-03-11 18:32:00,
2013-03-11 14:42:00,53.0,43.0,30.05,ESE,121,2.0,4.0,69,0.00,,,0.00,,2013-03-11 18:42:00,
2013-03-11 14:53:00,55.0,46.0,30.03,South,187,4.0,8.0,71,0.00,,,0.00,,2013-03-11 18:53:00,
2013-03-11 15:02:00,56.0,47.0,30.02,South,171,5.0,10.0,72,0.00,,,0.00,,2013-03-11 19:02:00,
2013-03-11 15:12:00,56.0,47.0,30.02,South,171,5.0,10.0,72,0.00,,,0.00,,2013-03-11 19:12:00,
2013-03-11 15:23:00,57.0,47.0,30.00,SE,145,3.0,8.0,70,0.00,,,0.00,,2013-03-11 19:23:00,
2013-03-11 15:33:00,58.0,48.0,29.98,SE,126,3.0,10.0,70,0.00,,,0.00,,2013-03-11 19:33:00,
2013-03-11 15:42:00,58.0,48.0,29.98,SE,126,3.0,10.0,70,0.00,,,0.00,,2013-03-11 19:42:00,
2013-03-11 15:53:00,59.0,49.0,29.98,ESE,110,4.0,11.0,70,0.00,,,0.00,,2013-03-11 19:53:00,
2013-03-11 16:02:00,59.0,49.0,29.98,SSE,161,3.0,9.0,70,0.00,,,0.00,,2013-03-11 20:02:00,
2013-03-11 16:12:00,59.0,49.0,29.98,SSE,161,3.0,9.0,70,0.00,,,0.00,,2013-03-11 20:12:00,
2013-03-11 16:22:00,60.0,50.0,29.96,SSE,147,6.0,9.0,69,0.00,,,0.00,,2013-03-11 20:22:00,
2013-03-11 16:32:00,60.0,50.0,29.96,ESE,115,4.0,12.0,69,0.00,,,0.00,,2013-03-11 20:32:00,
2013-03-11 16:43:00,60.0,50.0,29.96,ESE,115,4.0,12.0,69,0.00,,,0.00,,2013-03-11 20:43:00,
2013-03-11 16:53:00,60.0,50.0,29.96,South,176,2.0,6.0,69,0.00,,,0.00,,2013-03-11 20:53:00,
2013-03-11 17:03:00,58.0,44.0,29.96,NNE,25,2.0,6.0,59,0.00,,,0.00,,2013-03-11 21:03:00,
2013-03-11 17:13:00,58.0,44.0,29.96,NNE,25,2.0,6.0,59,0.00,,,0.00,,2013-03-11 21:13:00,
2013-03-11 17:22:00,55.0,43.0,29.94,NW,321,1.0,4.0,65,0.00,,,0.00,,2013-03-11 21:22:00,
2013-03-11 17:32:00,55.0,43.0,29.95,NW,320,2.0,4.0,65,0.00,,,0.00,,2013-03-11 21:32:00,
2013-03-11 17:44:00,55.0,43.0,29.95,NW,320,2.0,4.0,65,0.00,,,0.00,,2013-03-11 21:44:00,
2013-03-11 17:53:00,54.0,43.0,29.94,NW,315,3.0,4.0,66,0.00,,,0.00,,2013-03-11 21:53:00,
2013-03-11 18:03:00,54.0,43.0,29.94,NW,319,1.0,3.0,67,0.00,,,0.00,,2013-03-11 22:03:00,
2013-03-11 18:12:00,54.0,43.0,29.94,NW,319,1.0,3.0,67,0.00,,,0.00,,2013-03-11 22:12:00,
2013-03-11 18:22:00,54.0,44.0,29.93,WNW,294,2.0,3.0,68,0.00,,,0.00,,2013-03-11 22:22:00,
2013-03-11 18:32:00,54.0,44.0,29.92,NW,312,1.0,2.0,69,0.00,,,0.00,,2013-03-11 22:32:00,
2013-03-11 18:43:00,54.0,44.0,29.92,NW,312,1.0,2.0,69,0.00,,,0.00,,2013-03-11 22:43:00,
2013-03-11 18:53:00,54.0,44.0,29.92,North,355,1.0,3.0,69,0.00,,,0.00,,2013-03-11 22:53:00,
2013-03-11 19:03:00,54.0,44.0,29.93,NW,317,0.0,2.0,68,0.00,,,0.00,,2013-03-11 23:03:00,
2013-03-11 19:12:00,54.0,44.0,29.93,NW,317,0.0,2.0,68,0.00,,,0.00,,2013-03-11 23:12:00,
2013-03-11 19:22:00,54.0,44.0,29.93,WNW,302,0.0,1.0,70,0.00,,,0.00,,2013-03-11 23:22:00,
2013-03-11 19:32:00,53.0,43.0,29.93,NNW,329,0.0,1.0,70,0.00,,,0.00,,2013-03-11 23:32:00,
2013-03-11 19:43:00,53.0,43.0,29.93,NNW,329,0.0,1.0,70,0.00,,,0.00,,2013-03-11 23:43:00,
2013-03-11 19:54:00,53.0,44.0,29.93,NE,39,1.0,2.0,72,0.00,,,0.00,,2013-03-11 23:54:00,
2013-03-11 20:02:00,53.0,45.0,29.92,NE,39,0.0,1.0,73,0.00,,,0.00,,2013-03-12 00:02:00,
2013-03-11 20:12:00,53.0,45.0,29.92,NE,39,0.0,1.0,73,0.00,,,0.00,,2013-03-12 00:12:00,
2013-03-11 20:23:00,55.0,49.0,29.93,SSW,205,2.0,6.0,79,0.00,,,0.00,,2013-03-12 00:23:00,
2013-03-11 20:33:00,58.0,51.0,29.91,SSE,159,4.0,9.0,77,0.00,,,0.00,,2013-03-12 00:33:00,
2013-03-11 20:42:00,58.0,51.0,29.91,SSE,159,4.0,9.0,77,0.00,,,0.00,,2013-03-12 00:42:00,
2013-03-11 20:54:00,59.0,51.0,29.90,SSE,155,8.0,12.0,75,0.00,,,0.00,,2013-03-12 00:54:00,
2013-03-11 21:02:00,60.0,51.0,29.91,SSE,167,6.0,12.0,73,0.00,,,0.00,,2013-03-12 01:02:00,
2013-03-11 21:12:00,60.0,51.0,29.91,SSE,167,6.0,12.0,73,0.00,,,0.00,,2013-03-12 01:12:00,
2013-03-11 21:22:00,60.0,51.0,29.91,SSE,161,5.0,10.0,73,0.00,,,0.00,,2013-03-12 01:22:00,
2013-03-11 21:33:00,59.0,50.0,29.90,South,181,5.0,11.0,73,0.00,,,0.00,,2013-03-12 01:33:00,
2013-03-11 21:42:00,59.0,50.0,29.90,South,181,5.0,11.0,73,0.00,,,0.00,,2013-03-12 01:42:00,
2013-03-11 21:53:00,60.0,51.0,29.91,SSE,157,5.0,12.0,73,0.00,,,0.00,,2013-03-12 01:53:00,
2013-03-11 22:02:00,60.0,51.0,29.91,South,186,6.0,15.0,73,0.00,,,0.00,,2013-03-12 02:02:00,
2013-03-11 22:12:00,60.0,51.0,29.91,South,186,6.0,15.0,73,0.00,,,0.00,,2013-03-12 02:12:00,
2013-03-11 22:22:00,59.0,51.0,29.90,South,178,5.0,13.0,75,0.00,,,0.00,,2013-03-12 02:22:00,
2013-03-11 22:32:00,58.0,52.0,29.90,South,181,5.0,10.0,79,0.00,,,0.00,,2013-03-12 02:32:00,
2013-03-11 22:42:00,58.0,52.0,29.90,South,181,5.0,10.0,79,0.00,,,0.00,,2013-03-12 02:42:00,
2013-03-11 22:52:00,58.0,52.0,29.90,SE,128,4.0,10.0,80,0.01,,,0.01,,2013-03-12 02:52:00,
2013-03-11 23:02:00,57.0,52.0,29.91,South,179,3.0,11.0,83,0.01,,,0.01,,2013-03-12 03:02:00,
2013-03-11 23:12:00,57.0,52.0,29.91,South,179,3.0,11.0,83,0.01,,,0.01,,2013-03-12 03:12:00,
2013-03-11 23:22:00,56.0,52.0,29.91,West,262,2.0,8.0,87,0.04,,,0.04,,2013-03-12 03:22:00,
2013-03-11 23:32:00,55.0,52.0,29.91,West,259,2.0,5.0,90,0.06,,,0.06,,2013-03-12 03:32:00,
2013-03-11 23:42:00,55.0,52.0,29.91,West,259,2.0,5.0,90,0.06,,,0.06,,2013-03-12 03:42:00,
2013-03-11 23:53:00,54.0,52.0,29.91,WNW,282,3.0,5.0,92,0.08,,,0.09,,2013-03-12 03:53:00,